CW4829 Weather Reports


Display with metric or nautical units.
time (UTC)temp
F
wind
direction
speed
MPH
gust
MPH
rain 1hr
in
rain 24hr
in
rain mn
in
humidity
%
barometer
mb
20260905001535 78 324 0.0 0.0 0.00 0.02 0.02 82 1011.3
20260905001052 78 324 0.0 0.0 0.00 0.02 0.02 82 1011.2
20260905000608 78 324 0.0 1.0 0.00 0.02 0.02 82 1011.2
20260905000108 79 324 0.0 1.0 0.00 0.02 0.02 81 1011.2
20260904235026 79 324 0.0 0.0 0.00 0.02 0.02 81 1011.1
20260904234036 80 324 0.0 1.0 0.00 0.02 0.02 79 1011.2
20260904233024 80 324 1.0 2.0 0.00 0.02 0.02 79 1011.2
20260904232556 81 324 0.0 3.0 0.00 0.02 0.02 78 1011.2
20260904232108 81 324 2.0 3.0 0.00 0.02 0.02 77 1011.2
20260904231607 81 324 1.0 3.0 0.00 0.02 0.02 77 1011.2
20260904231110 81 324 3.0 3.0 0.00 0.02 0.02 77 1011.6
20260904230521 81 324 1.0 3.0 0.00 0.02 0.02 77 1011.6
20260904230042 81 324 1.0 3.0 0.00 0.02 0.02 77 1011.6
20260904225604 81 324 1.0 4.0 0.00 0.02 0.02 76 1011.2
20260904225110 81 324 3.0 4.0 0.00 0.02 0.02 76 1011.2
20260904224620 81 188 1.0 3.0 0.00 0.02 0.02 77 1011.2
20260904224021 81 51 0.0 2.0 0.00 0.02 0.02 77 1011.2
20260904223556 81 51 0.0 4.0 0.00 0.02 0.02 77 1011.2
20260904222527 82 165 0.0 3.0 0.00 0.02 0.02 77 1011.2
20260904221529 82 165 0.0 3.0 0.00 0.02 0.02 76 1011.2
20260904221047 82 165 1.0 3.0 0.00 0.02 0.02 77 1010.8
20260904220025 81 202 1.0 6.0 0.00 0.02 0.02 79 1010.8
20260904215025 80 196 1.0 2.0 0.00 0.02 0.02 80 1010.6
20260904214038 79 196 0.0 4.0 0.00 0.02 0.02 81 1010.1
20260904212546 79 227 1.0 4.0 0.00 0.02 0.02 80 1009.6
20260904212102 79 211 1.0 7.0 0.00 0.02 0.02 80 1009.6
20260904211039 79 191 1.0 6.0 0.00 0.02 0.02 80 1009.0
20260904210614 79 198 2.0 7.0 0.00 0.02 0.02 80 1009.0
20260904205527 79 196 3.0 5.0 0.00 0.02 0.02 79 1010.1
20260904205033 79 228 1.0 4.0 0.00 0.02 0.02 79 1010.1
20260904204552 80 197 2.0 4.0 0.00 0.02 0.02 79 1010.1
20260904203535 80 128 0.0 3.0 0.00 0.02 0.02 79 1011.3
20260904202530 81 184 1.0 4.0 0.00 0.02 0.02 78 1011.8
20260904201525 81 184 1.0 3.0 0.00 0.02 0.02 77 1011.8
20260904200534 81 128 0.0 1.0 0.00 0.02 0.02 76 1012.3
20260904200053 81 128 1.0 2.0 0.00 0.02 0.02 76 1012.3
20260904195554 81 128 1.0 3.0 0.00 0.02 0.02 76 1012.5
20260904195105 81 128 1.0 7.0 0.00 0.02 0.02 75 1012.5
20260904194620 81 128 4.0 7.0 0.00 0.02 0.02 75 1012.5
20260904194022 82 107 1.0 6.0 0.00 0.02 0.02 75 1012.7
20260904193550 82 136 3.0 6.0 0.00 0.02 0.02 75 1012.7
20260904192540 82 123 1.0 6.0 0.00 0.02 0.02 78 1012.8
20260904192058 81 70 1.0 8.0 0.00 0.02 0.02 79 1012.8
20260904191547 81 109 2.0 8.0 0.00 0.02 0.02 79 1012.8
20260904190536 80 42 2.0 10.0 0.00 0.02 0.02 80 1013.3
20260904190114 80 323 3.0 10.0 0.00 0.02 0.02 80 1013.3
20260904185035 80 49 4.0 10.0 0.00 0.02 0.02 81 1013.8
20260904184601 80 117 5.0 10.0 0.00 0.02 0.02 81 1013.8
20260904183544 79 40 4.0 9.0 0.00 0.02 0.02 82 1013.6
20260904183051 79 321 3.0 9.0 0.00 0.02 0.02 83 1013.6
20260904182618 79 9 3.0 11.0 0.00 0.02 0.02 84 1013.8
20260904182018 79 15 4.0 11.0 0.00 0.02 0.02 84 1013.8
20260904181543 79 338 3.0 9.0 0.00 0.02 0.02 85 1013.8
20260904181048 79 55 3.0 8.0 0.00 0.02 0.02 86 1013.5
20260904180620 79 43 3.0 7.0 0.01 0.02 0.02 87 1013.5
20260904180124 79 127 2.0 7.0 0.01 0.02 0.02 86 1013.5
20260904175028 79 24 2.0 6.0 0.01 0.02 0.02 87 1013.9
20260904174548 79 351 2.0 5.0 0.01 0.02 0.02 87 1013.9
20260904174051 79 19 2.0 4.0 0.02 0.02 0.02 86 1013.8
20260904173046 80 270 1.0 5.0 0.02 0.02 0.02 88 1013.8
20260904172604 80 234 1.0 3.0 0.02 0.02 0.02 87 1013.0
20260904172111 80 111 0.0 2.0 0.02 0.02 0.02 87 1013.0
20260904171041 80 111 0.0 4.0 0.02 0.02 0.02 87 1013.9
20260904170054 80 192 2.0 4.0 0.01 0.01 0.01 85 1013.9
20260904165533 80 192 1.0 3.0 0.01 0.01 0.01 84 1014.0
20260904165049 81 192 1.0 5.0 0.01 0.01 0.01 84 1014.0
20260904164602 81 226 2.0 5.0 0.01 0.01 0.01 82 1014.0
20260904163544 82 187 1.0 4.0 0.00 0.00 0.00 81 1014.3
20260904163047 82 187 1.0 4.0 0.00 0.00 0.00 81 1014.3
20260904162558 82 187 1.0 5.0 0.00 0.00 0.00 81 1014.1
20260904161536 82 108 0.0 3.0 0.00 0.00 0.00 80 1014.1
20260904161051 82 108 0.0 3.0 0.00 0.00 0.00 81 1013.9
20260904160601 82 108 0.0 3.0 0.00 0.00 0.00 82 1013.9
20260904155532 81 308 1.0 2.0 0.00 0.00 0.00 83 1014.1
20260904154523 81 308 0.0 1.0 0.00 0.00 0.00 83 1014.1
20260904154052 81 307 1.0 2.0 0.00 0.00 0.00 83 1013.9
20260904153022 81 327 2.0 3.0 0.00 0.00 0.00 83 1013.9
20260904152552 82 340 1.0 3.0 0.00 0.00 0.00 84 1013.8
20260904152057 82 333 1.0 5.0 0.00 0.00 0.00 84 1013.8
20260904151032 81 336 1.0 4.0 0.00 0.00 0.00 84 1013.8
20260904145520 81 300 1.0 5.0 0.00 0.00 0.00 84 1013.0
20260904145044 81 146 1.0 2.0 0.00 0.00 0.00 84 1013.0
20260904144538 81 146 1.0 3.0 0.00 0.00 0.00 86 1013.0
20260904143531 80 148 0.0 2.0 0.00 0.00 0.00 85 1013.4
20260904143055 80 148 0.0 2.0 0.00 0.00 0.00 86 1013.4
20260904142609 80 148 0.0 2.0 0.00 0.00 0.00 87 1013.4
20260904142139 80 148 1.0 2.0 0.00 0.00 0.00 87 1013.4
20260904141525 80 148 1.0 2.0 0.00 0.00 0.00 86 1013.4
20260904141048 80 148 0.0 3.0 0.00 0.00 0.00 86 1013.1
20260904140028 80 42 2.0 3.0 0.00 0.00 0.00 88 1013.1
20260904135608 79 163 1.0 3.0 0.00 0.00 0.00 89 1012.9
20260904135032 79 163 0.0 3.0 0.00 0.00 0.00 89 1012.9
20260904134557 78 42 1.0 3.0 0.00 0.00 0.00 89 1012.9
20260904133531 78 133 2.0 4.0 0.00 0.00 0.00 89 1013.0
20260904133051 78 98 1.0 3.0 0.00 0.00 0.00 90 1013.0
20260904132555 78 127 0.0 2.0 0.00 0.00 0.00 91 1012.8
20260904131531 77 127 1.0 2.0 0.00 0.00 0.00 91 1012.8
20260904131053 77 127 1.0 3.0 0.00 0.00 0.00 91 1013.1
20260904130024 77 127 2.0 3.0 0.00 0.00 0.00 92 1013.1
20260904125546 76 127 0.0 3.0 0.00 0.00 0.00 92 1013.3
20260904124531 75 192 0.0 1.0 0.00 0.00 0.00 93 1013.3
20260904124046 75 192 0.0 1.0 0.00 0.00 0.00 93 1013.3
20260904123024 74 192 1.0 3.0 0.00 0.00 0.00 93 1013.3
20260904122543 74 192 0.0 2.0 0.00 0.00 0.00 93 1013.3
20260904122100 74 192 0.0 2.0 0.00 0.00 0.00 93 1013.3
20260904120051 73 192 0.0 1.0 0.00 0.00 0.00 93 1013.2
20260904115521 73 192 0.0 2.0 0.00 0.00 0.00 93 1012.9
20260904114519 73 192 0.0 2.0 0.00 0.00 0.00 93 1012.9
20260904114114 73 192 0.0 2.0 0.00 0.00 0.00 93 1012.7
20260904111553 72 192 0.0 0.0 0.00 0.00 0.00 93 1012.3
20260904111024 72 192 0.0 0.0 0.00 0.00 0.00 92 1012.2
20260904110543 72 192 0.0 0.0 0.00 0.00 0.00 92 1012.2
20260904110132 72 192 0.0 0.0 0.00 0.00 0.00 92 1012.2
20260904105547 72 192 0.0 0.0 0.00 0.00 0.00 92 1012.2
20260904104525 72 192 0.0 0.0 0.00 0.00 0.00 91 1012.2
20260904104114 72 192 0.0 0.0 0.00 0.00 0.00 91 1012.1
20260904103553 72 192 0.0 0.0 0.00 0.00 0.00 91 1012.1
20260904103026 72 192 0.0 0.0 0.00 0.00 0.00 91 1012.1
20260904102105 72 192 0.0 0.0 0.00 0.00 0.00 91 1012.0
20260904101520 72 192 0.0 0.0 0.00 0.00 0.00 91 1012.0
20260904101114 72 192 0.0 0.0 0.00 0.00 0.00 91 1011.8
20260904100532 73 192 0.0 0.0 0.00 0.00 0.00 91 1011.8
20260904100104 73 192 0.0 0.0 0.00 0.00 0.00 91 1011.8
20260904095537 73 192 0.0 0.0 0.00 0.00 0.00 90 1012.1
20260904095028 73 192 0.0 0.0 0.00 0.00 0.00 90 1012.1
20260904092545 72 192 0.0 0.0 0.00 0.00 0.00 90 1011.8
20260904092036 72 192 0.0 0.0 0.00 0.00 0.00 90 1011.8
20260904091612 72 192 0.0 0.0 0.00 0.00 0.00 90 1011.8
20260904085550 72 192 0.0 0.0 0.00 0.00 0.00 89 1011.7
20260904085054 72 192 0.0 0.0 0.00 0.00 0.00 89 1011.7
20260904084540 72 192 0.0 0.0 0.00 0.00 0.00 89 1011.7
20260904084112 73 192 0.0 0.0 0.00 0.00 0.00 89 1011.7
20260904083530 73 192 0.0 2.0 0.00 0.00 0.00 89 1011.7
20260904083041 73 192 1.0 2.0 0.00 0.00 0.00 89 1011.7
20260904082525 73 192 0.0 0.0 0.00 0.00 0.00 88 1011.8
20260904082055 73 192 0.0 0.0 0.00 0.00 0.00 88 1011.8
20260904081542 73 192 0.0 0.0 0.00 0.00 0.00 88 1011.8
20260904080536 73 192 0.0 0.0 0.00 0.00 0.00 88 1011.9
20260904080041 73 192 0.0 0.0 0.00 0.00 0.00 88 1011.9
20260904075631 73 192 0.0 1.0 0.00 0.00 0.00 88 1011.9
20260904075044 74 192 0.0 1.0 0.00 0.00 0.00 88 1011.9
20260904074521 74 192 0.0 2.0 0.00 0.00 0.00 87 1011.9
20260904074022 74 192 0.0 2.0 0.00 0.00 0.00 87 1012.2
20260904073058 74 192 0.0 0.0 0.00 0.00 0.00 87 1012.2
20260904072607 74 192 0.0 2.0 0.00 0.00 0.00 87 1012.2
20260904072040 74 192 1.0 2.0 0.00 0.00 0.00 87 1012.2
20260904071601 74 192 1.0 2.0 0.00 0.00 0.00 87 1012.2
20260904071130 74 192 1.0 3.0 0.00 0.00 0.00 87 1012.2
20260904070547 74 192 0.0 3.0 0.00 0.00 0.00 87 1012.2
20260904070050 74 192 1.0 2.0 0.00 0.00 0.00 86 1012.2
20260904065550 74 192 1.0 2.0 0.00 0.00 0.00 86 1012.3
20260904065134 74 192 0.0 1.0 0.00 0.00 0.00 86 1012.3
20260904064534 74 192 0.0 1.0 0.00 0.00 0.00 85 1012.3
20260904064117 74 192 0.0 1.0 0.00 0.00 0.00 85 1012.2
20260904063526 74 192 0.0 1.0 0.00 0.00 0.00 85 1012.2
20260904062616 75 192 0.0 1.0 0.00 0.00 0.00 84 1012.2
20260904062041 75 192 0.0 2.0 0.00 0.00 0.00 84 1012.2
20260904061607 75 192 0.0 0.0 0.00 0.00 0.00 84 1012.2
20260904060549 75 192 0.0 2.0 0.00 0.00 0.00 84 1012.3
20260904060036 75 192 0.0 2.0 0.00 0.00 0.00 84 1012.3
20260904055525 75 192 0.0 4.0 0.00 0.00 0.00 84 1012.4
20260904055035 75 192 1.0 4.0 0.00 0.00 0.00 84 1012.4
20260904054521 75 192 0.0 3.0 0.00 0.00 0.00 84 1012.4
20260904054049 75 192 1.0 3.0 0.00 0.00 0.00 84 1012.5
20260904053542 75 265 0.0 2.0 0.00 0.00 0.00 84 1012.5
20260904053020 75 144 0.0 2.0 0.00 0.00 0.00 84 1012.5
20260904052522 75 144 0.0 2.0 0.00 0.00 0.00 84 1012.6
20260904052021 74 144 0.0 1.0 0.00 0.00 0.00 84 1012.6
20260904051530 74 144 0.0 1.0 0.00 0.00 0.00 84 1012.6
20260904051018 74 144 0.0 1.0 0.00 0.00 0.00 84 1012.7
20260904050540 74 143 0.0 1.0 0.00 0.00 0.00 84 1012.7
20260904050036 75 143 0.0 1.0 0.00 0.00 0.00 84 1012.7
20260904045528 74 143 0.0 1.0 0.00 0.00 0.00 83 1012.7
20260904045036 74 143 0.0 1.0 0.00 0.00 0.00 83 1012.7
20260904044544 75 143 0.0 0.0 0.00 0.00 0.00 83 1012.7
20260904044018 75 143 0.0 0.0 0.00 0.00 0.00 82 1012.7
20260904043526 75 143 0.0 0.0 0.00 0.00 0.00 83 1012.7
20260904043046 75 143 0.0 0.0 0.00 0.00 0.00 82 1012.7
20260904042541 75 143 0.0 0.0 0.00 0.00 0.00 82 1012.8
20260904042027 75 143 0.0 0.0 0.00 0.00 0.00 83 1012.8
20260904041519 75 143 0.0 0.0 0.00 0.00 0.00 82 1012.8
20260904041046 75 143 0.0 2.0 0.00 0.00 0.00 82 1012.7
20260904040523 75 143 0.0 2.0 0.00 0.00 0.00 82 1012.7
20260904040041 75 143 1.0 2.0 0.00 0.00 0.00 82 1012.7
20260904035618 75 143 0.0 2.0 0.00 0.00 0.00 82 1012.7
20260904034557 75 143 0.0 2.0 0.00 0.00 0.00 82 1012.7
20260904034033 75 143 1.0 2.0 0.00 0.00 0.00 81 1012.8
20260904033601 75 143 0.0 2.0 0.00 0.00 0.00 81 1012.8
20260904033022 75 143 1.0 2.0 0.00 0.00 0.00 81 1012.8
20260904032606 75 143 0.0 1.0 0.00 0.00 0.00 81 1012.8
20260904032052 75 143 0.0 0.0 0.00 0.00 0.00 81 1012.8
20260904031520 75 143 0.0 0.0 0.00 0.00 0.00 80 1012.8
20260904030615 76 143 0.0 1.0 0.00 0.00 0.00 80 1012.9
20260904030051 76 143 0.0 1.0 0.00 0.00 0.00 79 1012.9
20260904024611 76 143 1.0 1.0 0.00 0.00 0.00 76 1013.1
20260904023546 76 143 0.0 1.0 0.00 0.00 0.00 76 1013.3
20260904023057 77 143 0.0 1.0 0.00 0.00 0.00 76 1013.3
20260904022514 77 143 0.0 0.0 0.00 0.00 0.00 75 1012.9
20260904022044 77 143 0.0 0.0 0.00 0.00 0.00 74 1012.9
20260904021523 77 143 0.0 0.0 0.00 0.00 0.00 74 1012.9
20260904021047 77 143 0.0 0.0 0.00 0.00 0.00 74 1012.9
20260904020610 77 143 0.0 0.0 0.00 0.00 0.00 74 1012.9
20260904020050 77 143 0.0 0.0 0.00 0.00 0.00 73 1012.9
20260904015629 77 143 0.0 0.0 0.00 0.00 0.00 73 1012.8
20260904015040 77 143 0.0 0.0 0.00 0.00 0.00 72 1012.8
20260904014059 77 143 0.0 2.0 0.00 0.00 0.00 72 1012.6
20260904013531 77 143 1.0 2.0 0.00 0.00 0.00 72 1012.6
20260904013024 78 143 1.0 2.0 0.00 0.00 0.00 72 1012.6
20260904012517 78 143 0.0 2.0 0.00 0.00 0.00 71 1012.3
20260904012101 78 143 0.0 2.0 0.00 0.00 0.00 69 1012.3
20260904011552 78 143 0.0 2.0 0.00 0.00 0.00 69 1012.3
20260904011014 79 143 0.0 2.0 0.00 0.00 0.00 68 1012.7
20260904010609 79 143 0.0 3.0 0.00 0.00 0.00 68 1012.7
20260904005558 79 140 0.0 4.0 0.00 0.00 0.00 66 1012.8
20260904005027 79 140 0.0 4.0 0.00 0.00 0.00 66 1012.8
20260904003601 81 55 1.0 4.0 0.00 0.00 0.00 63 1012.4
20260904003049 81 330 2.0 11.0 0.00 0.00 0.00 62 1012.4